Wind_Speed
19 19 19 21 22 21 20 21 22 23 22 22 22 24 24 24 21 6 6 7 14 25 22 20 8 9 10 3 5 2 3 4 5 4 5 5 9 5 3 7 5 7 3 3 19
21 21 20 21 22 23 21 21 23 23 23 23 23 23 24 26 15 7 4 10 15 27 22 20 10 12 3 3 3 3 2 3 4 8 6 6 11 10 7 8 6 7 3 16 20
22 22 22 21 23 24 22 23 23 24 23 23 24 23 24 21 3 0 3 13 16 22 16 10 14 8 4 3 5 4 4 8 11 13 9 10 9 10 9 10 11 14 13 16 18
22 23 23 24 25 25 24 24 24 25 24 23 23 22 22 6 1 3 2 14 18 13 17 10 8 4 3 4 5 4 10 12 8 15 7 4 3 6 14 8 11 12 18 18 17
23 23 24 24 26 26 26 26 25 24 24 23 21 19 9 4 5 4 6 15 21 13 7 7 7 4 5 3 2 8 6 7 11 10 4 5 8 5 9 6 9 16 18 18 15
23 24 25 26 27 27 27 28 27 26 25 23 18 12 2 5 2 1 10 17 15 11 6 7 4 5 4 4 3 3 13 16 3 2 3 1 4 3 1 12 15 17 19 16 15
24 24 26 26 28 28 28 27 28 27 26 20 12 3 2 12 4 2 8 10 10 10 4 6 4 5 1 5 2 5 9 12 5 5 4 5 6 5 3 11 15 15 16 13 12
25 26 26 28 28 29 28 28 28 27 20 12 3 4 6 4 5 8 9 9 10 10 6 4 4 3 3 4 2 3 2 5 5 8 4 4 11 10 10 12 14 15 15 13 12
25 26 27 29 29 29 28 28 25 12 6 4 2 3 7 3 6 5 13 7 7 7 3 3 2 1 3 2 4 3 7 5 5 6 1 3 12 8 10 12 12 14 14 13 10
26 27 27 28 29 29 28 24 7 2 2 2 1 3 5 1 1 2 6 8 3 4 4 2 2 3 2 3 9 3 5 5 10 3 9 12 14 14 2 9 11 11 9 11 12
26 28 27 28 28 29 25 6 3 3 2 5 1 5 5 7 8 4 4 8 5 3 5 1 5 5 7 4 2 3 5 10 16 7 6 5 10 11 6 5 9 12 11 11 10
28 28 28 27 27 20 10 4 5 3 8 7 10 13 15 7 6 6 7 7 6 7 4 3 6 7 2 5 4 4 8 14 14 5 6 3 6 8 10 3 9 13 14 15 12
28 30 29 27 23 5 9 5 11 2 4 7 6 7 4 13 10 12 11 6 5 7 8 10 6 4 5 5 7 9 9 12 11 4 2 5 4 2 5 5 4 11 14 16 16
28 28 30 28 4 17 2 2 20 8 3 5 5 4 4 6 6 9 17 7 4 12 7 7 4 8 7 7 6 10 6 12 9 4 4 2 4 1 2 3 4 9 14 16 19
27 28 29 23 16 5 2 15 7 3 3 2 3 1 4 7 2 5 3 6 13 9 7 5 6 8 8 5 8 6 2 4 3 4 2 3 4 0 5 7 8 10 12 17 20
30 28 30 13 11 11 9 14 4 3 8 3 2 3 3 6 3 3 6 2 2 7 4 6 2 4 6 4 9 2 2 2 2 1 5 3 4 4 5 4 6 10 14 15 13
32 30 24 16 5 7 13 2 4 5 2 1 1 3 2 3 6 7 9 12 13 8 13 11 10 4 5 6 4 3 3 2 4 4 6 2 4 5 5 7 11 11 13 11 7
33 30 17 19 8 5 0 3 7 5 7 3 3 7 3 1 4 6 7 9 4 4 4 11 9 10 9 12 7 7 4 3 5 4 5 2 3 4 5 6 9 13 11 10 6
32 17 11 5 8 10 3 9 6 6 1 4 4 4 2 1 2 3 8 7 11 10 8 6 5 2 5 3 6 6 5 2 5 1 4 2 4 11 8 9 7 10 12 14 10
22 9 5 8 4 8 4 9 4 3 3 1 3 1 2 4 2 1 6 2 3 10 3 7 6 3 2 5 4 4 8 3 1 4 6 3 4 6 7 10 10 12 15 13 10
6 4 9 4 11 3 7 5 6 7 4 3 1 3 2 3 4 2 2 2 2 3 5 7 7 4 3 7 8 4 4 3 2 2 5 4 4 6 10 7 13 14 14 10 10
5 3 5 9 2 1 4 5 2 6 2 4 2 4 5 5 4 2 1 1 3 4 6 5 4 9 14 2 2 2 4 6 5 5 1 3 4 3 7 7 11 14 11 9 8
5 3 2 3 3 3 2 3 3 6 5 3 4 7 4 4 3 3 2 2 6 2 3 7 3 6 4 4 3 5 5 4 4 1 7 4 3 2 5 8 9 13 9 9 8
3 2 2 1 1 2 0 2 3 3 9 6 8 6 4 5 4 3 1 1 3 3 4 4 2 3 6 2 1 5 7 8 5 4 6 6 3 4 4 9 9 10 9 9 9
2 1 2 2 4 4 2 2 9 6 4 4 4 12 10 6 5 4 3 2 2 3 2 0 2 3 1 3 3 3 10 12 8 3 5 7 7 8 13 10 10 6 7 8 9
2 3 4 3 3 3 4 3 4 5 5 4 8 5 13 6 6 7 4 2 1 2 2 1 1 1 1 1 2 1 2 3 5 2 3 4 2 11 11 10 9 5 9 12 14
3 3 3 2 2 2 2 1 4 6 7 11 8 6 10 16 6 2 2 3 2 2 2 2 1 1 3 6 2 4 2 2 4 6 4 1 5 15 14 14 13 11 8 12 14
Wind_Direction
3 1 359 357 356 352 349 346 344 343 342 344 345 341 343 337 333 289 230 236 177 161 154 142 142 143 169 232 226 239 281 308 329 333 341 165 195 144 162 156 169 183 206 152 148
1 357 355 353 351 348 345 343 341 340 339 339 340 340 340 334 324 241 248 196 178 163 149 153 156 163 210 223 206 239 266 274 289 291 285 242 207 168 168 166 191 173 119 141 151
358 354 352 349 347 344 341 339 338 337 336 335 337 339 338 333 284 222 287 193 179 167 166 153 147 167 224 210 188 173 270 299 290 276 280 257 233 181 185 197 204 193 169 163 162
355 353 350 346 342 341 336 335 333 333 333 333 334 336 336 340 203 341 332 177 170 152 149 144 153 190 261 235 190 236 252 270 293 312 301 236 229 214 204 229 206 181 168 165 172
353 351 347 344 340 337 332 331 329 329 328 328 330 332 348 337 261 343 135 161 171 178 181 169 168 193 253 288 266 251 284 273 287 305 310 179 237 223 223 172 152 154 162 174 176
348 346 343 341 338 333 330 329 327 325 323 321 321 319 24 296 271 36 160 163 180 187 200 195 209 204 272 263 247 297 292 292 307 318 4 175 267 240 128 148 147 161 168 176 177
349 343 341 338 337 331 326 326 324 321 316 313 306 276 154 252 218 116 167 184 207 196 199 213 197 202 189 276 296 281 310 325 19 21 14 297 210 250 140 162 158 166 170 179 179
348 343 339 338 335 329 324 325 321 317 311 308 229 170 249 235 224 242 225 233 220 214 224 241 170 253 230 306 262 287 240 295 16 358 354 301 295 334 159 171 166 165 177 179 193
346 341 337 337 335 329 324 325 318 318 340 104 135 199 260 240 258 234 218 210 185 216 242 108 136 210 191 234 269 29 289 301 317 4 209 299 304 292 159 182 176 175 182 181 195
344 341 337 337 334 329 327 325 319 309 55 55 117 269 245 227 165 260 213 186 165 141 129 153 107 190 132 214 260 281 300 281 283 308 299 298 278 285 115 186 187 179 180 188 208
342 339 336 337 334 332 335 342 327 204 349 235 149 277 282 319 287 219 180 147 135 147 208 87 223 225 245 210 230 250 261 277 282 255 278 285 274 325 29 186 188 186 186 188 202
341 337 334 335 333 335 353 66 76 312 302 253 250 258 261 272 283 254 185 188 170 193 147 188 239 234 149 171 207 236 277 283 291 154 231 287 318 51 33 22 209 190 185 187 178
340 338 335 335 332 4 337 144 351 305 262 284 228 250 221 181 230 242 185 168 171 173 194 239 238 126 194 240 272 269 257 268 260 325 123 313 132 105 34 47 129 192 184 190 184
338 338 336 337 354 333 308 186 331 175 296 268 235 250 166 179 247 207 195 174 184 217 184 250 236 218 226 245 212 274 236 264 268 263 284 331 311 158 115 85 164 181 188 186 194
336 334 332 335 306 291 259 325 334 176 276 197 195 63 147 199 346 200 192 201 199 175 174 213 176 172 192 219 184 267 318 292 216 177 222 163 255 148 228 231 204 210 200 201 207
331 329 326 322 294 281 298 333 154 207 238 292 265 180 188 216 233 127 180 107 232 170 233 237 206 213 241 214 200 116 211 65 71 94 243 111 259 217 208 221 208 206 211 209 216
326 321 309 285 251 281 313 288 192 222 343 257 338 341 307 236 217 204 178 185 196 191 215 223 231 227 212 244 177 176 219 253 218 219 262 94 236 285 238 251 247 221 216 199 227
325 318 300 266 260 260 212 180 219 223 242 325 314 301 268 300 219 195 162 187 192 166 185 214 244 204 191 219 233 193 220 242 247 240 280 141 237 278 231 276 264 232 225 195 257
328 318 291 287 255 213 186 199 222 207 257 314 289 262 308 336 284 206 205 195 200 183 199 173 243 245 208 162 191 163 203 89 115 82 263 303 263 274 243 242 237 229 227 229 247
330 314 275 302 210 167 192 224 224 237 313 321 274 326 359 322 329 283 178 128 243 206 261 196 252 201 127 144 71 233 136 174 180 206 251 204 270 261 263 243 219 223 226 229 248
337 303 348 141 139 200 212 230 251 226 256 298 288 325 334 346 310 318 181 111 22 116 186 159 221 184 196 203 194 146 176 73 106 288 261 251 227 228 267 257 212 216 220 214 235
346 275 8 134 176 291 206 204 250 272 182 262 279 266 274 309 287 272 201 73 42 174 173 183 193 225 222 137 338 182 186 180 238 195 216 294 243 210 254 259 226 222 202 200 218
330 283 127 346 218 204 242 253 251 248 238 212 247 232 226 231 242 241 265 89 24 146 188 175 206 224 188 166 153 212 187 173 119 138 191 224 237 171 259 258 229 228 194 194 210
306 276 133 186 307 283 79 251 248 261 256 235 248 240 236 238 204 289 260 298 9 35 68 105 142 233 256 295 1 180 183 183 209 190 165 224 270 262 271 263 252 236 222 199 203
205 304 337 200 238 232 255 278 277 285 240 215 223 223 212 235 183 213 251 299 142 37 81 55 160 212 206 242 277 250 189 173 199 236 216 167 211 355 1 351 331 247 227 223 213
305 328 340 287 286 256 195 227 261 259 235 251 229 237 212 226 209 190 180 222 274 34 82 359 144 299 173 35 337 4 122 161 226 170 290 6 76 9 334 351 359 305 232 216 225
326 288 279 301 314 235 205 265 283 320 245 240 263 270 203 221 241 275 119 94 74 8 53 29 95 359 262 1 323 229 9 252 122 80 336 198 359 335 329 343 357 341 299 256 239
Height
827 824 822 819 817 814 811 809 806 802 799 797 793 790 787 784 782 780 778 774 775 779 784 788 793 795 798 796 793 789 799 800 790 789 779 768 773 769 768 776 775 776 776 777 784
826 824 821 819 817 814 810 808 805 802 798 795 793 789 786 782 778 776 773 771 772 776 782 786 791 794 795 792 790 792 801 791 772 768 772 765 765 766 772 777 780 778 777 781 784
827 825 822 819 816 813 810 807 804 802 798 794 791 787 784 780 778 772 771 771 772 776 779 784 786 789 793 789 788 790 792 773 767 761 760 764 763 758 767 780 770 771 774 780 784
827 824 821 818 815 812 809 807 804 800 796 793 790 785 783 781 794 771 769 772 776 778 780 783 786 790 791 790 781 793 777 772 763 757 760 766 754 759 759 757 754 761 767 776 782
826 823 820 817 814 810 807 804 800 797 794 791 788 785 783 783 776 772 770 773 777 779 779 780 783 784 791 783 783 786 774 767 761 759 756 757 758 756 756 754 755 762 770 775 779
825 822 818 815 811 808 804 801 797 793 790 788 786 785 785 790 771 771 772 773 775 777 778 778 777 777 782 783 786 775 772 765 760 760 757 763 759 758 754 754 760 764 769 772 777
825 821 817 814 810 806 802 799 794 790 787 785 783 784 784 776 770 770 772 773 774 774 775 776 775 777 778 782 775 774 778 761 761 761 762 756 767 765 758 759 763 767 770 774 779
823 819 816 812 808 804 799 795 790 786 784 781 781 783 779 767 767 768 769 770 772 773 774 773 774 775 778 774 776 781 781 786 767 765 766 761 774 751 756 761 767 770 770 776 779
822 818 815 811 806 801 796 791 786 783 782 781 783 782 776 766 765 763 765 767 768 771 773 774 774 778 778 785 789 789 797 795 783 766 769 768 772 748 754 759 768 771 773 776 779
821 817 813 809 804 798 792 787 784 782 782 782 783 785 766 765 761 762 762 763 765 768 772 775 779 784 786 787 807 802 800 792 792 776 767 771 768 750 755 761 767 773 779 781 779
820 816 811 807 802 797 790 785 786 785 781 775 776 775 765 763 762 759 760 762 763 767 781 781 786 793 783 786 787 791 797 797 778 773 779 772 771 760 765 764 767 769 778 780 781
819 814 810 806 801 797 794 794 800 803 791 772 771 769 764 765 769 758 759 763 767 778 779 785 791 777 781 785 788 791 795 789 775 771 773 768 769 772 769 766 762 768 773 774 776
818 813 808 804 799 797 797 797 797 797 795 771 764 760 758 760 759 754 754 756 765 778 779 784 777 775 780 783 788 783 791 782 782 775 768 771 775 779 776 771 764 761 766 767 768
817 813 808 803 802 799 797 797 795 794 798 774 764 754 754 754 757 743 746 750 764 771 778 779 768 775 780 783 781 789 770 774 779 780 788 777 791 782 781 782 775 771 768 765 764
816 813 808 806 804 801 798 796 794 795 819 763 757 749 751 754 748 743 742 746 761 767 772 775 774 777 780 775 774 777 769 775 775 776 781 782 783 772 779 775 780 774 768 763 758
815 811 807 805 801 796 795 794 795 804 816 769 754 754 757 752 747 743 745 743 745 762 766 764 761 763 763 761 765 764 773 780 781 778 792 788 785 773 765 761 763 766 764 764 763
811 807 804 802 797 793 793 794 804 811 775 770 764 757 760 756 752 747 752 756 761 782 780 765 767 758 757 769 766 770 777 794 799 796 795 794 788 767 755 758 757 761 764 766 768
805 800 795 792 792 792 792 795 812 785 779 766 763 759 762 756 751 749 754 759 756 759 772 781 786 762 752 757 764 769 768 787 813 807 792 793 789 760 754 755 753 754 759 761 762
799 793 790 787 787 792 791 798 787 784 772 772 764 767 762 756 756 754 750 752 745 749 767 777 778 752 750 748 750 772 778 769 793 810 799 785 774 751 750 755 757 757 758 759 758
798 794 788 786 786 790 789 786 781 777 771 769 776 768 772 763 757 755 754 746 748 745 743 756 775 753 747 746 756 755 759 780 784 809 810 795 789 767 750 746 752 754 754 754 755
799 793 787 785 788 787 787 784 780 771 772 772 774 773 770 769 761 757 755 746 743 746 747 751 756 760 752 754 755 766 767 778 775 785 787 793 779 741 740 737 742 743 742 750 752
803 792 788 788 788 795 785 782 776 767 768 768 768 768 769 766 763 757 755 747 742 742 752 750 752 762 754 747 746 747 754 759 773 792 788 781 767 731 734 734 736 734 739 747 748
805 799 790 790 786 785 783 778 773 769 767 769 768 764 760 763 771 758 752 741 740 742 747 750 762 764 762 756 753 752 754 757 767 769 783 777 762 739 739 737 733 734 740 745 746
809 792 788 789 791 784 780 776 775 765 766 763 762 760 764 763 761 760 753 743 741 743 750 746 764 757 760 754 748 755 754 757 754 763 768 759 750 733 734 737 735 737 737 742 743
809 794 794 784 783 783 780 777 776 776 762 761 762 760 760 766 761 761 754 745 741 748 747 748 757 760 753 754 751 746 745 752 756 751 749 746 752 738 743 744 738 736 741 745 743
807 802 795 787 785 782 783 775 773 766 766 760 764 753 756 758 751 756 751 752 749 743 748 751 758 758 752 751 750 749 745 749 751 754 752 752 752 748 740 736 737 740 740 740 741
810 807 802 787 783 782 774 771 768 767 754 750 752 754 755 747 745 744 744 746 748 750 753 754 757 760 762 759 752 759 754 747 748 753 757 752 758 751 744 741 742 741 739 737 737